Hlavní strana
METAR-TAF:

METAR-TAF

Letiště :

Dalton Municipal Airport

Dalton, Georgie, Spojené státy americké

zeměpisná šířka: 34-43-18N, zeměpisná délka: 084-52-09W, výška: 216 m

Aktuální stav počasí

Zpráva byla vytvořena před 12 minutami, v 17:15 UTC
Severní vítr 7 kt s nárazy do 15 kt
Teplota 11°C
Vlhkost vzduchu 43%
Tlak 1022 hPa
Viditelnost: 16.1 km
Oblačno až skoro zataženo ve výšce 6500 ft
Zataženo ve výšce 8000 ft

METAR: KDNN 151715Z AUTO 35007G15KT 10SM BKN065 OVC080 11/M01 A3018 RMK AO2

Čas: 12:27 (17:27 UTC)


TAF: chybějící

Stav a předpovědi počasí z více než 4 000 letišť (zprávy METAR a TAF).

Červené a žluté tečky na mapě představují dostupné meteorologické stanice.

Když kurzor umístíte na tečku, zobrazí se název stanice.

Pak kliknutím zobrazíte stav a předpověď počasí.

Chcete-li změnit mapu, kliknutím na zelené tlačítko se znaménkem +mapu přiblížíte, kliknutím na zelené tlačítko se znaménkem – mapu oddálíte a kliknutím na zelené šipky přejdete na sousední mapy.


METAR-TAF: